User: anonymous   Login
Location: Bonny Doon Airfield
(37.0704°N, 122.1252°W)
Time: 17:04:12
(UTC-07:00)
Language:

BREEZE M DEB (TANK) - Orbit

View from above orbital plane
View from above orbital plane
View from above satellite
View from above satellite

Ground track
Ground track

The orbit data is extracted from the following two-line orbital elements,

1 33437U 08057B   15208.79903513  .00001189  00000-0  21956-3 0  9998
2 33437 049.5497 115.9882 5018484 294.4058 041.3831 05.58011684135227
Epoch (UTC): 27 July 2015 19:10:36
Eccentricity: 0.5018484
inclination: 49.5497°
perigee height: 310 km
apogee height: 13787 km
right ascension of ascending node: 115.9882°
argument of perigee: 294.4058°
revolutions per day: 5.58011684
mean anomaly at epoch: 41.3831°
orbit number at epoch: 13522

The dashed part of the orbit path shows where the satellite is in the earth's shadow,  

DLR